Dosis diarias (en J/m2) de radiaci�n solar incidente en superficie.
Lugar de muestreo: Estaci�n de Fotobiolog�a Playa Uni�n (EFPU) en Playa Uni�n, Chubut, Argentina (-43.311263, -65.040969).
Datos aportados al Sistema Nacional de Datos del Mar.
Fecha,Dosis PAR,DosisUV-A,DosisUV-B
2016-10-06,91908.0,18384.0,5274.0
2016-10-07,5197974.0,705762.0,189654.0
2016-10-08,7523280.0,980040.0,239022.0
2016-10-09,7542594.0,993408.0,233700.0
2016-10-10,5766342.0,787662.0,185346.0
2016-10-11,4909896.0,682572.0,159408.0
2016-10-12,6658770.0,874548.0,175254.0
2016-10-13,8292324.0,1072698.0,215076.0
2016-10-14,6100536.0,819090.0,191574.0
2016-10-15,2197452.0,342576.0,91644.0
2016-10-16,1388196.0,235788.0,80118.0
2016-10-17,0.0,0.0,25920.0
2016-10-18,0.0,0.0,25524.0
2016-10-19,0.0,0.0,25920.0
2016-10-20,5097600.0,661848.0,153240.0
2016-10-21,9672510.0,1394616.0,32766.0
2016-10-22,9046416.0,1295928.0,28410.0
2016-10-23,3832374.0,607428.0,15720.0
2016-10-24,5112240.0,792342.0,20088.0
2016-10-25,6924900.0,1014276.0,22812.0
2016-10-26,9987876.0,1385328.0,29130.0
2016-10-27,9971550.0,1378098.0,28164.0
2016-10-28,9081036.0,1273956.0,27744.0
2016-10-29,9467388.0,1306002.0,28428.0
2016-10-30,5181714.0,794988.0,17706.0
2016-10-31,7299300.0,1056984.0,22410.0
2016-11-01,7617162.0,1101822.0,24258.0
2016-11-02,8999940.0,1262118.0,29490.0
2016-11-03,7815024.0,1095198.0,23076.0
2016-11-04,8197452.0,1116756.0,23436.0
2016-11-05,8639382.0,1200834.0,23130.0
2016-11-06,6434472.0,927702.0,20244.0
2016-11-07,8303994.0,1169550.0,25614.0
2016-11-08,1496640.0,272298.0,7230.0
2016-11-09,9448110.0,1306092.0,29130.0
2016-11-10,8751366.0,1216272.0,26292.0
2016-11-11,9615402.0,1312128.0,31554.0
2016-11-12,9076608.0,1247646.0,28656.0
2016-11-13,9365346.0,1285776.0,27144.0
2016-11-14,3112164.0,478500.0,8532.0
2016-11-15,6665820.0,950082.0,20454.0
2016-11-16,8566068.0,1190448.0,27990.0
2016-11-17,9402762.0,1286310.0,30426.0
2016-11-18,9353946.0,1276146.0,27318.0
2016-11-19,8568882.0,1177962.0,24924.0
2016-11-20,9236718.0,1259622.0,27876.0
2016-11-21,9517914.0,1292172.0,28668.0
2016-11-22,8762970.0,1201290.0,24840.0
2016-11-23,9643668.0,1298142.0,27078.0
2016-11-24,8424516.0,1142346.0,22050.0
2016-11-25,8537454.0,1156494.0,22704.0
2016-11-26,4181808.0,629646.0,14358.0
2016-11-27,7244892.0,1001508.0,20988.0
2016-11-28,9550728.0,1290354.0,27534.0
2016-11-29,9781632.0,1317210.0,26664.0
2016-11-30,9696282.0,1302462.0,24696.0
2016-12-01,8008722.0,1110684.0,19560.0
2016-12-02,9345762.0,1266672.0,25890.0
2016-12-03,9347274.0,1258182.0,24288.0
2016-12-04,3681126.0,536622.0,9846.0
2016-12-05,6758796.0,960972.0,20304.0
2016-12-06,9615960.0,1290990.0,26448.0
2016-12-07,9751590.0,1300788.0,27414.0
2016-12-08,9626556.0,1290126.0,28290.0
2016-12-09,8618184.0,1185204.0,22860.0
2016-12-10,5552754.0,783012.0,15966.0
2016-12-11,8464224.0,1155942.0,23064.0
2016-12-12,6429306.0,894906.0,17496.0
2016-12-13,8337930.0,1123182.0,23160.0
2016-12-14,1792356.0,261552.0,5670.0
2016-12-15,9300624.0,1253484.0,24414.0
2016-12-16,8455308.0,1131450.0,20016.0
2016-12-17,7287582.0,994074.0,19362.0
2016-12-18,9513714.0,1268136.0,23652.0
2016-12-19,8595636.0,1160724.0,22188.0
2016-12-20,7718730.0,1060038.0,18786.0
2016-12-21,9673296.0,1291164.0,24486.0
2016-12-22,9511302.0,1271190.0,23898.0
2016-12-23,6814344.0,899424.0,18840.0
2016-12-24,1029804.0,152370.0,2286.0
2016-12-25,7831296.0,1070616.0,19692.0
2016-12-26,9247956.0,1219866.0,23844.0
2016-12-27,9456252.0,1254642.0,24354.0
2016-12-28,9116244.0,1189104.0,21204.0
2016-12-29,9228948.0,1211022.0,22146.0
2016-12-30,9268812.0,1229904.0,22998.0
2016-12-31,6164454.0,853776.0,14430.0
